SCP
1 1 1 1 1 0 0 1 0 1 1 1 1 1 0 0 0 0 0 0 0 0
0 1 1 1 1 1 1 1 1 1 1 1 1 1 0 0 0 0 0 0 0 0
0 1 1 1 1 1 1 1 1 1 1 1 0 1 0 0 0 0 0 0 0 1
1 0 1 1 1 2 1 1 1 1 2 1 1 1 1 0 0 1 0 0 0 1
2 3 2 1 1 1 2 3 2 1 1 2 2 2 1 1 1 1 0 0 0 0
1 1 1 1 1 1 1 2 2 2 2 2 1 1 1 1 1 1 1 1 1 1
1 1 0 0 1 1 1 2 2 1 1 2 1 1 1 1 1 1 1 1 1 1
1 0 0 0 0 0 0 0 1 1 1 1 1 1 1 1 1 1 1 1 1 1
0 0 0 0 0 0 0 0 0 0 0 0 0 0 0 0 1 1 1 1 1 1
0 0 0 0 0 0 0 0 0 0 0 0 0 0 0 0 0 0 1 1 1 1
0 0 0 0 0 0 0 0 0 0 0 0 0 0 0 0 0 0 0 1 1 1
0 0 0 0 0 0 0 0 0 0 0 0 0 0 0 0 0 0 0 0 0 1
0 0 0 0 0 0 0 0 0 0 0 0 0 0 0 0 0 0 0 0 0 0
0 0 0 0 0 0 0 0 0 0 0 -0 0 0 0 0 0 0 0 0 0 0
Wind_Speed_500mb
11 9 17 17 25 30 21 17 18 29 33 37 40 45 42 46 48 45 44 43 43 39
17 17 14 19 25 16 18 19 19 26 36 40 42 45 47 52 46 46 44 46 43 42
12 17 20 15 15 18 19 20 22 24 31 37 37 40 42 47 48 48 48 46 47 50
19 11 18 18 21 26 24 27 28 30 33 32 31 32 33 37 40 45 43 46 48 52
9 10 15 18 20 26 28 33 28 29 32 34 30 29 25 28 33 37 38 40 46 46
27 33 33 33 31 32 32 32 34 36 34 31 34 34 34 35 34 31 29 31 34 40
30 37 41 42 40 41 42 44 42 46 46 46 39 37 38 38 44 44 43 38 35 37
30 30 34 37 41 44 46 47 49 49 49 49 52 45 42 50 47 51 48 39 43 49
39 41 41 40 39 41 41 43 47 50 52 56 55 51 56 52 52 44 45 51 47 52
32 39 41 42 43 44 46 45 47 53 55 56 57 59 57 62 61 60 55 52 46 46
36 34 35 36 38 43 43 46 48 50 54 63 61 57 52 54 60 70 62 55 54 49
30 36 37 39 43 46 50 54 53 55 55 56 62 62 48 44 55 64 66 60 59 57
32 32 34 33 39 46 48 52 53 49 52 56 40 43 43 37 46 57 63 62 60 54
32 34 36 41 42 44 49 49 52 53 51 34 41 32 27 40 45 45 54 58 55 55
Wind_Direction_500mb
280 278 300 309 272 285 273 314 279 283 280 273 265 263 256 254 251 248 246 248 248 237
347 338 304 276 285 301 275 282 278 274 283 287 278 267 265 257 259 257 251 247 244 250
326 314 331 338 339 340 333 326 312 303 302 294 290 283 269 266 265 261 256 254 248 247
326 304 306 306 300 308 316 313 313 316 311 305 298 292 288 281 275 266 265 261 253 251
287 284 294 316 302 297 291 286 290 303 297 305 308 310 307 296 285 282 276 273 266 262
291 276 273 275 273 278 278 278 277 266 273 276 282 287 292 295 292 292 289 288 289 276
299 294 298 299 295 282 275 278 286 277 273 267 268 272 277 278 282 282 285 283 285 292
297 294 291 289 292 292 287 283 280 282 279 275 274 267 277 282 280 265 272 273 286 293
295 298 301 302 302 298 294 292 288 285 283 281 278 270 265 270 278 279 266 272 277 277
317 315 323 325 325 318 313 305 291 283 283 284 280 278 277 264 264 270 272 276 274 274
327 324 317 319 328 330 327 317 309 292 281 274 272 273 275 275 271 264 266 267 264 267
327 331 339 344 335 334 332 331 330 322 312 294 271 264 274 277 276 275 271 267 261 260
345 335 332 330 334 337 341 341 344 332 324 325 309 278 269 289 291 283 282 274 263 265
341 341 344 340 340 338 345 345 346 347 343 339 327 319 300 295 285 287 291 285 272 252
Wind_Speed_850mb
11 9 17 17 25 30 21 17 18 29 33 37 40 45 42 46 48 45 44 43 43 39
17 17 14 19 25 16 18 19 19 26 36 40 42 45 47 52 46 46 44 46 43 42
12 17 20 15 15 18 19 20 22 24 31 37 37 40 42 47 48 48 48 46 47 50
19 11 18 18 21 26 24 27 28 30 33 32 31 32 33 37 40 45 43 46 48 52
9 10 15 18 20 26 28 33 28 29 32 34 30 29 25 28 33 37 38 40 46 46
27 33 33 33 31 32 32 32 34 36 34 31 34 34 34 35 34 31 29 31 34 40
30 37 41 42 40 41 42 44 42 46 46 46 39 37 38 38 44 44 43 38 35 37
30 30 34 37 41 44 46 47 49 49 49 49 52 45 42 50 47 51 48 39 43 49
39 41 41 40 39 41 41 43 47 50 52 56 55 51 56 52 52 44 45 51 47 52
32 39 41 42 43 44 46 45 47 53 55 56 57 59 57 62 61 60 55 52 46 46
36 34 35 36 38 43 43 46 48 50 54 63 61 57 52 54 60 70 62 55 54 49
30 36 37 39 43 46 50 54 53 55 55 56 62 62 48 44 55 64 66 60 59 57
32 32 34 33 39 46 48 52 53 49 52 56 40 43 43 37 46 57 63 62 60 54
32 34 36 41 42 44 49 49 52 53 51 34 41 32 27 40 45 45 54 58 55 55
Wind_Direction_850mb
280 278 300 309 272 285 273 314 279 283 280 273 265 263 256 254 251 248 246 248 248 237
347 338 304 276 285 301 275 282 278 274 283 287 278 267 265 257 259 257 251 247 244 250
326 314 331 338 339 340 333 326 312 303 302 294 290 283 269 266 265 261 256 254 248 247
326 304 306 306 300 308 316 313 313 316 311 305 298 292 288 281 275 266 265 261 253 251
287 284 294 316 302 297 291 286 290 303 297 305 308 310 307 296 285 282 276 273 266 262
291 276 273 275 273 278 278 278 277 266 273 276 282 287 292 295 292 292 289 288 289 276
299 294 298 299 295 282 275 278 286 277 273 267 268 272 277 278 282 282 285 283 285 292
297 294 291 289 292 292 287 283 280 282 279 275 274 267 277 282 280 265 272 273 286 293
295 298 301 302 302 298 294 292 288 285 283 281 278 270 265 270 278 279 266 272 277 277
317 315 323 325 325 318 313 305 291 283 283 284 280 278 277 264 264 270 272 276 274 274
327 324 317 319 328 330 327 317 309 292 281 274 272 273 275 275 271 264 266 267 264 267
327 331 339 344 335 334 332 331 330 322 312 294 271 264 274 277 276 275 271 267 261 260
345 335 332 330 334 337 341 341 344 332 324 325 309 278 269 289 291 283 282 274 263 265
341 341 344 340 340 338 345 345 346 347 343 339 327 319 300 295 285 287 291 285 272 252